Theta_e
317 318 319 321 319 322 323 323 328 329 327 320 318 319 317 317 318 318 318 319 319 319 318 319 318 319 319 320 320 321 322 322 323 325 324 321 321 322 322 323 326 330 329 330 335 337 339 339 339 340 340 340 340 340 339 337 335 333 331 329 329 328 328 324 318 322 324 325 328 330 331 333 333 333 332 332 332 331 329 326 324 324 324 324 324 324 322 320 318 316 314 312 311 311 310 310 311
318 319 320 321 321 325 325 324 329 328 324 318 315 318 315 316 318 316 319 318 319 318 319 319 318 319 319 320 321 323 325 324 323 323 324 323 322 321 321 325 328 331 330 329 334 336 338 340 339 340 340 339 340 340 338 337 334 332 330 329 329 327 326 322 318 320 321 323 327 330 331 332 333 333 332 332 331 330 327 322 321 321 321 322 321 319 316 313 312 310 310 309 310 310 309 309 309
319 320 320 322 324 323 326 326 328 325 320 316 314 317 316 316 318 317 318 317 318 318 318 319 317 319 319 320 320 322 325 325 323 322 324 324 321 318 321 327 328 330 331 330 334 336 337 339 339 339 339 339 339 339 338 337 334 331 330 329 329 326 323 319 318 320 322 325 327 329 331 332 333 332 332 332 331 328 324 320 318 318 317 316 315 313 312 311 310 309 309 309 309 309 309 309 309
319 320 321 322 326 326 328 328 331 330 319 317 316 315 316 316 318 317 317 317 318 318 318 319 317 318 319 319 319 320 322 324 324 321 319 319 319 318 321 326 326 328 331 330 332 336 338 338 338 339 339 340 339 340 338 336 335 333 332 331 329 326 321 318 318 321 323 325 325 327 330 331 332 331 331 331 329 327 323 321 321 321 320 318 316 314 313 313 311 309 308 308 309 309 308 308 308
318 320 321 321 327 327 328 326 332 332 319 322 320 314 317 317 318 316 316 317 317 318 317 318 318 317 318 318 318 319 319 321 322 320 318 317 317 318 321 324 325 326 328 330 331 334 338 337 337 339 339 339 339 339 338 337 336 335 334 331 330 325 319 318 319 321 323 325 326 328 330 331 331 330 330 329 328 326 324 323 323 324 323 322 320 318 315 314 313 309 307 308 308 307 307 307 308
319 321 321 321 325 324 329 327 323 323 317 322 320 314 318 316 317 316 315 317 316 317 317 317 318 317 319 319 319 318 318 320 319 318 318 317 317 318 320 321 325 329 327 330 333 333 336 337 336 338 338 338 339 338 337 337 336 335 334 332 331 326 318 318 319 320 323 326 328 329 331 331 330 329 328 328 328 327 325 324 325 325 325 325 324 321 319 316 314 311 308 307 306 306 306 306 306
320 321 321 323 326 324 332 327 319 321 318 318 318 317 317 315 316 316 316 317 316 317 316 317 316 317 319 320 321 319 317 318 318 318 318 317 317 317 318 319 326 332 330 331 334 332 331 333 335 337 338 339 339 339 337 337 336 334 334 332 331 328 319 317 319 320 324 328 330 331 331 331 330 330 328 328 327 327 326 326 326 326 326 325 324 323 321 318 316 313 309 307 306 305 304 304 304
320 321 321 326 330 328 330 325 321 324 320 316 317 318 317 317 317 316 317 317 317 316 316 317 316 317 317 320 324 321 316 316 317 318 318 317 317 317 317 319 324 328 329 331 334 332 327 329 333 335 337 338 339 338 337 336 336 335 334 332 331 329 322 317 319 320 323 328 331 331 331 330 331 331 330 328 328 328 328 327 327 326 326 325 325 323 322 319 317 315 311 307 305 304 304 304 304
319 321 321 326 330 328 327 322 320 321 319 317 316 318 318 317 318 316 316 316 316 316 316 317 316 318 317 320 322 320 316 315 315 316 318 317 317 318 317 319 321 322 326 330 331 331 328 326 329 333 336 338 338 337 337 337 336 335 335 333 331 330 326 319 319 320 323 328 331 331 330 331 332 332 331 329 328 329 328 327 326 325 325 324 323 322 321 320 318 316 314 309 306 304 303 303 304
320 320 319 327 329 324 323 320 320 319 317 318 316 317 317 317 318 317 316 316 316 316 317 317 316 317 317 317 317 317 317 314 313 315 316 316 317 317 318 318 318 319 322 325 326 327 327 325 327 331 335 336 337 337 336 337 336 336 336 334 332 330 328 323 320 320 323 328 330 330 330 331 331 331 332 330 329 329 328 326 325 324 324 323 322 321 320 319 318 317 315 312 308 305 304 303 303
322 319 318 329 330 323 323 321 320 319 317 317 316 317 317 317 318 316 317 316 316 316 316 317 316 316 316 314 313 314 314 313 313 314 314 315 316 316 317 317 318 317 318 320 320 322 323 324 326 330 334 335 336 336 336 336 336 337 336 335 333 330 329 326 322 321 324 327 328 329 330 331 331 331 332 331 331 330 329 327 325 324 325 324 324 322 320 319 318 316 316 313 310 307 305 303 303
322 323 325 326 324 323 324 323 320 318 318 318 317 316 317 317 317 316 316 316 316 317 316 316 316 316 316 314 313 312 313 313 314 314 314 314 314 315 316 317 318 317 317 318 318 318 319 322 324 329 333 334 335 335 335 335 335 336 336 336 335 332 330 328 326 323 323 325 327 328 329 330 330 331 331 331 332 331 330 329 327 327 328 327 325 322 320 318 317 316 315 313 311 309 306 304 303
320 323 331 325 322 325 324 321 321 321 318 318 317 316 317 316 316 316 315 316 316 317 316 316 316 316 316 314 314 313 313 314 313 314 314 314 314 314 315 316 317 318 317 317 317 318 318 320 322 326 331 333 334 334 334 334 335 335 336 336 335 333 331 329 327 325 323 324 325 325 327 329 329 329 330 330 330 330 330 329 329 329 329 328 326 323 320 318 316 315 314 313 312 310 308 305 304
318 319 327 325 322 325 324 322 321 323 319 316 316 315 317 316 316 316 316 317 316 316 316 315 316 316 315 315 315 314 314 313 313 313 313 313 313 313 314 315 316 317 318 317 317 317 318 319 320 325 329 331 332 333 334 333 334 335 335 336 335 334 333 331 329 327 325 324 324 323 324 325 326 327 327 328 328 329 329 329 330 330 329 328 326 324 320 318 317 316 314 313 312 311 310 307 305
317 318 325 324 321 322 323 322 323 325 319 316 317 315 317 316 316 316 316 317 315 316 316 316 316 316 315 316 315 314 313 313 314 315 315 315 314 314 314 315 315 315 317 318 318 318 318 317 319 325 328 330 331 332 333 332 333 333 334 334 335 335 334 333 330 328 327 325 323 322 322 323 324 325 324 325 326 326 327 327 329 329 329 329 327 323 320 319 318 317 315 314 313 312 311 309 307
317 320 327 324 320 321 318 319 323 323 317 316 317 315 316 316 316 316 316 316 315 316 316 316 315 315 315 315 314 312 312 313 314 317 320 321 317 316 315 315 316 315 315 316 318 319 320 319 319 325 329 330 330 330 331 332 332 332 333 333 334 335 335 334 332 330 327 326 324 323 322 322 323 323 323 323 324 324 325 327 328 328 328 328 326 322 321 321 320 319 316 315 314 313 312 311 309
320 325 334 326 319 320 317 318 322 321 317 316 315 316 316 316 316 316 316 315 314 315 316 315 315 315 314 313 313 312 312 313 314 316 321 322 320 318 316 315 315 315 315 315 316 317 319 319 319 322 327 330 330 328 329 330 330 331 332 332 333 334 335 334 334 332 329 327 326 325 323 323 323 323 323 324 324 325 327 329 327 326 326 327 325 322 322 322 322 321 317 315 315 315 314 313 312
320 328 335 325 317 317 316 318 319 319 318 315 315 316 315 316 316 316 316 315 314 315 314 314 314 314 313 313 312 312 312 313 314 316 319 320 319 319 318 316 315 315 315 314 315 315 316 317 318 319 320 327 332 330 328 329 329 330 331 330 331 332 332 334 335 334 331 329 327 326 325 324 324 324 324 326 326 327 328 328 327 325 325 326 324 323 323 323 323 323 320 318 317 317 316 315 313
317 326 331 321 317 316 314 316 315 316 317 315 316 315 315 316 315 315 315 315 314 315 314 314 314 314 313 312 312 313 313 313 313 314 316 318 318 318 317 316 315 314 314 314 314 315 315 316 316 318 318 322 330 332 332 331 330 331 331 330 330 331 331 332 334 334 332 331 329 328 327 326 325 326 326 327 328 328 328 328 327 325 325 325 324 324 324 323 323 323 322 321 320 320 319 317 315
316 325 326 317 316 315 314 316 314 316 316 315 316 315 315 315 315 316 315 314 314 314 314 314 314 314 313 312 312 313 313 313 313 313 314 315 315 315 315 314 314 313 313 313 313 313 314 315 315 317 317 318 326 332 333 332 332 332 332 332 331 331 332 332 333 334 333 332 331 330 329 328 328 329 329 327 328 328 328 328 327 326 325 325 325 324 324 325 325 323 323 323 322 322 322 321 319
316 322 321 315 314 315 315 316 315 315 315 315 315 315 315 315 316 316 315 316 315 313 313 315 315 314 314 313 312 313 313 314 314 314 314 313 313 313 313 313 313 313 313 313 313 313 313 313 314 315 317 318 322 329 332 332 333 332 332 332 331 331 332 333 333 333 333 332 332 332 331 331 331 332 331 330 329 328 328 328 327 327 326 326 325 325 326 326 326 324 324 324 323 323 323 322 320
317 317 317 315 315 316 316 315 316 314 315 316 315 315 316 315 316 316 315 317 317 314 313 314 315 315 314 313 312 313 313 314 314 314 314 314 314 314 314 314 314 314 314 314 314 314 313 312 313 314 315 318 320 325 331 331 331 331 331 331 330 330 331 333 333 333 333 333 333 333 332 333 332 332 332 331 330 330 329 329 328 328 328 327 326 326 327 327 326 325 325 325 325 324 324 323 321
319 317 315 316 316 316 316 316 316 315 315 315 315 316 316 315 316 316 315 315 316 314 313 313 313 314 314 313 312 313 314 314 314 314 314 314 314 314 314 314 314 314 314 314 314 314 314 313 313 313 314 317 320 324 329 330 330 330 330 330 331 331 332 333 334 334 334 334 334 334 333 333 333 332 332 332 332 331 330 330 329 329 328 328 327 327 327 327 326 326 326 326 325 325 324 324 322
319 318 316 317 316 316 316 316 316 315 315 315 315 315 315 316 316 315 315 314 315 314 312 312 312 312 312 312 312 313 314 315 314 315 314 314 314 314 314 314 314 314 314 314 314 314 314 314 313 313 313 317 323 326 329 330 330 329 329 331 333 332 333 334 335 334 334 334 334 334 333 333 333 332 332 332 332 331 331 331 330 329 329 328 328 328 327 327 327 327 327 326 326 325 325 325 323
318 318 316 317 317 316 316 316 316 315 315 315 315 315 315 316 315 314 314 314 314 313 312 311 311 312 311 312 312 313 314 314 314 314 314 314 314 314 314 314 314 314 314 314 314 314 314 314 314 313 313 319 326 329 329 330 330 329 330 331 332 332 333 334 335 333 333 334 333 333 333 333 333 332 332 331 331 331 331 330 330 329 329 329 328 328 327 328 328 327 327 327 327 325 324 324 322
316 316 316 316 316 316 316 316 316 316 316 315 315 315 315 315 315 314 313 313 313 312 311 311 311 311 312 312 312 313 314 314 314 314 314 314 314 313 313 313 313 313 313 313 314 314 314 313 313 313 316 321 328 329 329 330 330 328 330 330 331 331 332 333 332 332 333 333 333 332 332 332 332 332 332 331 331 331 330 329 330 330 330 329 329 329 328 328 328 328 328 327 326 324 324 323 322
315 316 316 316 316 316 316 316 316 316 315 315 316 315 315 315 315 315 313 312 312 312 311 311 312 312 312 312 313 313 313 313 313 313 314 313 313 313 313 313 313 313 313 314 314 314 314 313 314 317 320 323 327 330 329 330 330 328 329 330 331 332 331 331 331 332 333 333 333 331 331 331 331 332 331 331 331 331 330 330 330 330 330 330 329 329 329 329 328 328 327 326 325 324 324 323 322
315 315 316 316 316 316 316 316 316 316 315 315 315 315 314 313 315 315 313 312 312 311 311 311 312 312 311 312 313 313 313 313 313 313 313 313 313 313 313 313 312 313 313 314 315 314 314 314 315 320 324 324 325 329 330 330 330 330 330 330 331 332 331 331 331 331 332 331 331 330 330 329 328 329 329 330 330 331 331 330 330 330 330 330 329 329 329 328 327 327 327 325 324 324 324 323 322
315 315 317 319 318 318 317 315 316 316 316 315 315 315 317 315 314 314 313 312 311 311 312 311 312 312 311 312 312 312 312 312 312 312 313 312 312 312 312 312 312 313 313 314 315 314 314 315 318 322 325 326 326 327 329 330 330 330 330 330 330 331 330 330 330 329 329 329 329 329 328 327 326 326 326 327 328 330 330 330 330 329 329 328 328 328 328 327 326 326 326 325 325 325 323 322 322
317 315 315 320 322 323 319 314 316 316 315 315 315 318 324 320 312 312 312 311 312 312 311 311 312 312 311 312 312 312 312 312 312 312 312 312 312 312 311 312 312 313 313 314 315 314 314 316 319 323 325 326 327 327 328 329 329 328 328 329 329 329 330 329 329 329 329 329 329 328 328 327 328 327 326 325 325 326 327 328 329 329 328 328 327 327 326 326 325 325 325 325 324 323 322 322 322
318 316 318 321 321 327 322 313 316 316 314 315 315 318 326 322 312 311 313 312 312 312 312 312 312 311 311 311 311 311 312 311 311 311 312 312 311 311 311 311 312 313 315 315 314 315 315 316 320 324 326 326 327 328 328 329 329 327 327 327 328 328 328 328 329 329 329 329 328 328 328 327 327 326 325 325 325 325 326 327 327 327 327 326 325 325 324 324 324 324 324 323 323 322 322 322 319
318 318 327 326 320 329 325 313 315 317 315 313 315 320 324 320 312 311 312 312 313 312 312 312 312 312 311 311 311 311 312 311 311 311 311 311 311 311 311 311 312 314 316 316 315 317 318 319 321 324 325 325 327 328 327 329 329 328 327 326 326 326 327 327 328 328 327 328 328 327 327 326 325 325 324 325 326 327 327 326 326 326 325 324 324 324 324 323 323 323 323 323 322 320 318 314 311
324 319 327 328 321 326 323 315 315 315 315 313 315 320 323 319 312 311 311 312 313 313 313 313 312 312 311 311 311 311 311 311 311 310 310 310 310 310 311 311 312 314 317 317 317 319 321 322 321 322 323 322 325 327 326 327 328 327 326 325 324 324 325 326 325 325 325 326 326 326 325 325 324 324 324 325 326 326 326 326 325 325 323 323 323 324 324 323 323 322 321 319 316 312 308 306 304
331 320 320 326 324 322 321 320 316 313 315 315 314 316 319 319 312 311 312 311 312 313 313 313 312 312 311 310 310 310 310 310 310 310 310 310 310 310 310 311 312 314 318 319 319 320 321 322 321 323 325 323 323 324 324 325 325 324 325 324 324 323 324 323 323 322 323 323 324 324 324 323 323 322 322 323 323 324 324 323 323 322 322 322 322 322 321 319 318 316 313 310 307 305 303 302 302
330 324 322 326 326 323 321 322 318 315 316 316 316 316 316 317 313 311 312 312 312 313 312 312 312 311 311 310 310 310 309 309 310 309 309 310 310 310 310 312 315 316 319 321 322 322 321 321 320 321 323 325 325 324 324 325 325 324 324 323 323 323 322 321 321 321 322 322 322 322 322 321 321 321 320 321 321 321 321 321 320 319 317 317 316 315 312 310 308 306 305 303 302 301 300 300 299
326 329 331 327 325 325 322 321 318 316 317 317 317 317 316 317 316 312 311 312 312 312 312 312 312 311 310 310 309 309 309 309 309 308 309 309 310 310 310 312 315 315 318 321 322 323 323 323 321 319 321 323 324 324 324 325 325 324 324 323 322 321 321 320 319 320 321 321 320 321 321 320 320 319 319 319 319 318 317 316 314 311 308 308 307 306 304 303 302 301 300 300 299 299 299 298 298
321 324 327 324 323 324 323 321 316 314 317 320 319 317 317 318 318 313 311 313 311 311 312 311 312 311 310 310 309 309 308 308 308 308 309 310 309 310 310 312 313 314 317 321 321 321 322 321 320 321 321 321 321 322 323 322 323 323 322 322 321 320 320 320 320 320 321 320 319 319 318 317 316 314 313 312 311 311 309 307 305 304 302 302 302 301 300 299 299 299 299 298 299 299 299 298 297
318 320 321 323 325 324 323 321 316 314 317 323 323 319 319 320 319 314 311 311 311 311 311 311 311 311 310 310 308 309 308 307 308 308 309 310 309 310 311 313 314 315 316 319 321 321 320 319 319 322 322 321 320 320 320 320 320 320 319 319 319 319 319 319 319 319 318 316 314 313 311 309 308 307 306 305 304 303 302 302 301 300 300 299 299 298 298 298 298 298 298 298 298 298 298 297 297
319 322 321 324 327 325 325 321 316 316 317 324 327 321 320 321 319 316 312 310 311 311 312 312 311 310 310 310 309 308 308 307 307 308 308 309 310 310 311 314 316 316 316 317 319 320 320 320 320 321 321 321 321 320 320 320 319 319 318 317 318 318 317 317 316 313 310 309 307 306 304 303 303 302 301 301 301 300 299 299 299 298 298 297 297 297 297 297 297 297 297 297 296 296 296 296 296
322 322 321 325 327 324 325 323 317 316 318 321 323 321 319 318 318 317 312 310 312 311 312 312 311 311 310 309 309 308 308 307 307 307 308 309 310 310 312 315 318 317 317 318 318 318 318 319 319 319 319 320 320 319 319 318 318 317 316 316 316 316 313 311 309 306 304 304 303 302 301 300 300 300 299 299 299 298 298 298 298 297 297 297 297 297 297 297 296 296 296 295 295 295 295 294 294
325 324 322 325 326 323 324 324 320 321 323 321 319 322 325 322 320 320 313 310 311 310 311 311 310 311 310 309 309 308 308 307 307 307 307 309 310 310 312 315 318 318 316 316 317 318 316 316 316 317 318 318 318 318 317 315 314 315 314 314 313 311 307 305 304 303 302 302 301 300 299 298 299 298 298 298 298 298 298 297 297 297 297 297 296 296 296 296 295 295 295 294 294 294 293 293 293
325 327 324 322 324 324 323 325 324 326 330 325 320 326 334 332 326 322 315 311 312 309 308 309 309 309 309 309 308 308 308 307 306 307 307 309 310 311 312 314 316 316 314 315 317 318 317 316 316 317 317 317 316 316 315 314 313 313 313 311 308 306 304 302 302 301 300 300 299 298 298 297 297 298 298 298 297 297 297 297 297 296 296 296 295 295 295 294 294 294 293 293 293 293 292 293 292
324 325 326 325 324 322 322 325 326 329 330 324 321 327 330 328 326 324 319 315 313 310 307 307 308 308 308 308 308 307 307 306 306 306 307 310 310 311 313 314 314 314 315 316 317 316 316 316 317 316 316 315 314 315 314 312 311 309 308 307 305 304 303 301 299 299 299 298 298 297 297 297 297 297 297 297 297 297 297 296 296 296 295 295 294 294 294 294 293 293 292 292 292 292 292 292 291
327 324 326 330 326 323 324 325 325 328 328 322 322 325 324 323 323 322 320 318 314 311 309 307 306 308 307 307 307 307 307 306 305 306 307 310 311 311 313 314 314 314 316 317 315 314 315 316 316 315 314 313 313 312 310 308 306 305 305 304 303 302 302 300 298 298 298 297 297 297 297 297 297 297 297 297 296 296 296 296 295 295 294 294 293 293 293 292 292 292 292 292 291 291 291 291 290
326 323 325 329 327 326 326 325 325 325 324 322 322 322 323 325 326 319 315 317 318 314 311 308 306 307 307 307 307 306 306 306 305 305 306 310 312 312 313 314 314 315 316 316 314 314 315 315 314 313 312 311 310 308 306 305 304 304 303 302 301 300 300 299 298 298 297 297 298 297 297 297 297 297 296 296 296 295 295 294 294 294 293 293 293 292 292 292 292 291 291 291 290 290 290 290 289
321 320 324 327 327 327 325 324 325 324 323 324 323 321 323 327 327 320 315 318 320 316 312 308 305 306 307 306 306 306 306 305 305 305 306 309 313 313 313 313 314 315 315 315 314 314 314 313 313 312 310 308 307 305 304 303 302 302 301 301 301 300 300 299 298 298 297 297 297 297 297 297 296 296 296 295 295 294 294 293 293 293 292 292 292 291 291 291 291 290 290 290 290 289 289 289 289
318 322 327 328 327 327 327 324 323 323 324 324 323 322 322 325 328 324 318 320 320 317 315 309 305 306 306 306 306 305 305 304 304 304 305 309 312 313 313 314 314 314 314 314 314 313 313 314 313 311 308 306 304 303 303 302 301 300 300 300 301 301 300 299 299 298 297 297 297 297 296 296 296 295 295 294 294 293 293 292 292 292 292 291 291 291 291 290 290 290 290 290 289 289 289 289 289
319 327 328 326 327 327 326 322 321 324 325 324 322 321 320 323 329 326 319 320 319 318 319 312 305 305 305 305 306 305 305 304 304 304 305 308 312 313 313 314 314 314 314 314 314 313 313 313 311 308 305 304 303 302 301 300 300 299 299 300 300 300 299 299 298 298 297 297 297 296 296 295 295 295 294 294 293 293 292 292 292 292 292 291 291 291 290 290 290 290 290 289 289 289 289 289 289
321 326 325 324 324 325 325 322 321 323 323 320 317 319 320 321 324 322 319 320 317 315 315 311 306 304 305 305 305 304 304 304 304 304 305 308 311 313 313 313 313 313 314 314 313 313 312 310 308 306 304 303 302 301 300 299 299 299 299 299 299 299 298 298 298 297 297 296 296 296 295 295 295 294 293 293 293 292 292 292 292 292 291 291 291 290 290 290 290 290 290 290 289 289 289 289 289
321 323 325 326 324 325 328 325 323 324 324 319 314 317 321 322 322 321 319 316 312 309 311 311 309 306 305 305 305 304 304 303 304 304 305 308 310 312 314 313 313 313 314 313 312 311 309 307 306 305 303 302 301 300 299 299 298 298 298 298 298 298 298 297 297 297 296 296 296 295 295 294 294 294 293 293 293 292 292 292 292 292 291 291 291 290 290 290 290 290 290 290 289 289 289 289 289
318 321 323 325 326 330 330 326 325 327 325 318 314 318 324 326 323 316 311 309 308 308 310 310 309 307 305 305 304 304 303 303 303 304 306 308 309 311 312 313 313 313 312 311 309 307 306 305 305 303 302 301 300 299 299 298 298 298 298 298 298 297 297 297 296 296 296 296 295 295 295 294 293 293 293 293 292 292 292 292 291 291 291 290 290 290 290 290 290 289 289 289 289 289 289 289 288
318 320 322 323 327 329 326 323 322 321 322 319 316 322 325 323 318 310 307 308 307 307 308 307 306 305 304 304 303 304 303 302 303 303 305 306 307 309 310 311 311 310 309 307 306 305 305 304 303 303 302 301 300 299 298 298 298 298 297 297 297 297 297 296 296 296 295 295 295 294 294 294 293 293 293 292 292 292 292 291 291 291 290 290 290 290 289 289 289 289 289 289 289 288 288 288 288
319 319 321 321 322 323 323 322 318 316 321 322 318 322 323 320 316 311 309 310 308 306 306 305 304 304 304 303 303 303 303 302 303 303 304 305 306 307 308 308 308 307 307 306 305 304 304 303 303 302 301 300 299 298 298 298 297 297 297 296 296 296 296 296 296 296 295 295 294 294 294 293 293 293 292 292 292 292 291 291 290 290 290 290 290 289 289 289 289 289 288 288 288 288 287 287 287
321 321 320 318 319 321 323 324 322 320 323 322 319 321 322 322 320 313 309 312 311 308 306 304 303 303 303 303 303 303 302 302 303 303 304 304 305 306 306 306 306 306 305 305 304 304 303 302 302 301 300 299 298 298 297 297 297 297 296 296 296 296 296 295 295 295 295 295 294 294 293 293 293 292 292 292 292 291 291 290 290 290 290 289 289 289 289 289 288 288 288 287 287 287 287 287 287
319 320 317 319 323 324 323 323 324 324 323 323 323 321 319 320 320 317 314 314 313 309 307 305 303 302 302 302 302 302 302 302 302 303 303 304 304 305 305 305 305 305 304 304 303 303 302 302 301 300 300 299 298 297 297 296 296 296 296 296 295 295 295 295 295 295 294 294 294 293 293 293 293 292 292 292 291 291 291 290 290 290 289 289 289 289 288 288 288 287 287 287 287 287 286 286 286
315 316 314 318 323 323 323 322 322 325 324 324 324 322 322 322 320 322 321 315 311 309 308 306 304 302 303 303 302 302 302 302 303 303 303 304 304 304 304 304 304 304 303 303 303 302 302 301 300 299 299 298 297 297 296 296 296 295 295 295 295 295 295 295 295 294 294 294 293 293 293 293 293 292 292 292 291 291 290 290 290 289 289 289 288 288 288 287 287 287 287 287 286 286 286 286 286
316 318 317 317 318 319 321 320 321 325 324 324 323 322 327 325 317 318 320 314 309 308 308 306 304 303 303 303 303 303 302 302 303 304 304 304 304 304 304 304 303 303 303 302 302 302 301 300 300 299 298 297 297 296 296 296 295 295 295 295 295 295 294 294 294 294 294 293 293 293 293 293 292 292 292 291 291 290 290 290 289 289 289 289 288 287 287 287 287 287 287 286 286 286 286 286 285
316 316 317 317 317 318 320 320 320 321 322 326 324 321 326 323 313 314 317 313 308 307 307 306 304 304 304 304 304 303 303 303 303 304 304 304 304 303 303 303 303 302 302 302 301 301 300 300 299 298 297 297 297 296 296 295 295 295 295 295 295 294 294 294 294 293 293 293 293 293 293 292 292 292 292 291 291 290 290 289 289 289 289 288 287 287 287 287 287 286 286 286 286 286 286 285 285
Wind_Speed
1 1 2 2 2 2 3 2 2 2 4 4 2 3 2 3 4 4 4 4 4 3 5 6 8 9 5 8 14 17 14 6 3 5 5 3 4 5 4 2 3 8 6 9 15 15 13 12 11 10 9 8 7 7 6 6 5 4 5 5 5 6 6 7 9 10 11 11 12 11 11 10 8 7 6 6 6 7 8 9 10 10 11 11 10 10 10 10 10 9 8 8 7 6 5 5 4
1 1 1 2 1 3 3 2 2 2 5 4 1 3 1 4 6 5 5 4 2 1 4 7 11 12 8 11 17 19 16 13 14 14 12 7 7 6 6 4 5 8 7 9 15 15 13 11 11 10 9 8 7 6 5 5 5 4 4 5 5 5 7 9 9 9 10 11 11 11 11 9 8 7 6 6 6 7 8 10 11 12 13 12 12 11 12 12 11 10 9 9 8 7 6 5 4
2 2 1 0 0 3 2 2 3 3 4 4 2 1 2 5 6 5 5 5 4 3 2 4 10 13 14 12 12 12 8 11 15 14 13 8 7 6 7 7 6 7 7 8 13 15 12 11 10 10 9 8 7 6 5 5 5 4 3 3 4 5 8 10 9 9 10 10 10 10 10 9 8 6 5 5 6 7 9 10 12 13 14 13 13 12 12 13 13 12 10 10 9 8 7 6 5
2 2 1 1 2 4 3 2 3 5 3 4 2 2 4 6 6 6 7 8 6 6 5 3 6 11 16 11 7 10 7 8 10 9 10 8 9 8 8 9 6 7 8 9 10 14 12 11 10 9 10 8 7 7 6 5 4 2 2 2 3 4 8 10 9 9 9 9 9 10 9 9 7 6 5 5 6 7 9 11 12 13 14 14 13 13 13 14 15 14 12 11 10 9 8 6 5
2 0 0 3 4 2 2 2 2 5 2 4 3 1 5 7 6 6 8 10 8 8 8 6 4 7 13 10 6 5 4 4 6 7 9 9 10 9 9 8 7 6 6 9 9 12 12 10 9 9 9 9 8 7 6 5 3 1 1 2 2 4 8 10 9 8 9 9 9 9 9 8 7 5 4 5 6 7 8 10 11 12 13 14 13 13 13 14 15 15 13 12 11 10 9 7 6
2 1 1 4 3 1 2 3 3 5 1 3 5 3 6 8 9 10 10 10 10 10 9 8 6 8 11 13 14 10 5 3 3 7 9 9 9 9 9 9 9 7 4 8 9 8 10 10 10 9 9 9 8 7 6 4 2 1 1 2 2 4 8 10 10 8 8 8 8 8 8 7 5 4 4 4 5 6 7 9 10 12 13 14 14 13 14 14 15 15 14 12 11 10 9 8 7
3 2 2 4 2 2 4 4 4 4 3 2 6 5 6 8 12 12 9 6 7 9 9 9 8 11 7 6 12 14 10 6 4 7 8 8 9 8 9 11 13 9 4 5 6 6 7 9 10 10 9 9 9 8 6 4 3 2 2 3 2 3 7 10 10 8 7 7 7 7 6 5 4 3 3 4 4 5 6 8 10 11 13 14 14 14 14 14 14 15 14 12 11 10 9 8 7
4 4 3 3 2 3 4 4 2 3 2 2 4 5 7 7 9 8 5 5 3 5 8 8 8 9 3 5 7 9 12 10 8 9 8 8 8 7 7 11 13 11 7 5 5 5 5 7 9 10 10 9 9 8 6 4 4 3 2 3 3 3 5 9 9 7 7 7 6 7 6 4 3 3 2 3 4 5 6 8 10 11 13 14 14 15 15 14 14 14 14 13 10 9 9 7 7
4 4 3 3 2 3 3 3 2 2 2 2 4 7 7 7 8 6 5 6 5 6 8 8 10 7 5 13 11 6 10 11 10 9 9 8 7 7 6 9 10 9 8 7 7 6 5 6 8 11 10 10 9 8 7 5 4 4 3 4 4 4 5 7 8 7 6 6 6 6 5 4 3 3 2 4 4 5 6 9 11 12 13 14 15 16 16 15 14 13 14 13 11 9 9 8 7
4 3 1 2 3 4 3 2 2 2 2 3 5 7 7 6 7 8 7 6 6 6 6 5 10 11 10 13 9 6 8 7 7 7 8 8 6 6 5 7 7 7 7 8 8 7 7 6 8 11 11 10 10 8 7 6 4 4 4 5 5 5 5 6 6 6 6 6 6 5 5 4 3 2 1 3 4 5 6 9 11 12 14 15 16 17 17 16 15 14 14 14 12 10 9 8 8
4 2 1 3 4 3 2 2 3 3 3 3 5 6 6 4 4 6 7 7 7 8 5 3 7 11 12 8 7 8 6 3 5 6 7 6 5 5 5 5 5 5 6 7 7 7 8 8 9 12 12 11 11 10 9 7 5 5 5 4 5 4 5 6 6 6 5 5 6 5 4 4 3 2 1 3 4 5 6 9 11 13 13 15 16 17 18 17 16 15 14 14 13 11 9 9 8
3 2 2 4 2 2 4 4 5 4 3 2 2 3 4 5 4 4 5 7 9 10 8 5 4 5 8 5 8 9 4 2 4 5 5 4 3 4 4 5 4 4 5 5 6 7 7 9 10 12 14 13 12 11 10 9 7 7 6 4 4 4 4 5 5 5 5 5 6 5 4 4 2 1 1 3 4 4 5 8 11 12 13 14 16 17 18 17 16 16 14 13 13 11 10 8 8
3 1 5 2 2 4 4 4 5 4 3 1 2 5 4 5 5 4 9 10 9 8 6 6 3 4 6 7 9 8 4 1 3 3 2 2 2 3 3 5 5 5 5 5 5 6 7 8 10 12 14 13 12 12 11 11 9 8 7 6 6 4 4 4 5 5 5 5 5 5 4 3 2 1 2 3 4 5 6 8 9 10 12 14 15 17 18 18 17 16 14 13 12 12 10 9 8
4 2 4 1 1 3 4 3 3 4 1 3 3 5 4 5 5 6 10 10 7 6 4 3 2 5 7 7 7 5 1 3 3 3 1 2 3 3 4 4 5 5 5 6 5 6 6 7 9 11 14 14 13 13 12 11 11 9 8 8 7 6 5 4 4 5 5 5 5 5 4 3 2 2 3 3 4 5 5 6 7 9 11 12 14 16 18 18 17 16 14 13 12 12 11 10 9
5 2 3 2 3 2 3 2 3 6 2 3 3 5 5 6 5 6 7 5 4 4 3 2 1 4 5 4 4 2 3 4 4 6 4 4 5 5 5 6 5 6 7 6 6 6 5 5 7 9 13 14 15 14 13 12 11 10 9 8 8 7 7 5 4 4 5 6 6 5 4 3 3 3 4 4 5 6 5 6 6 8 9 10 13 15 15 15 15 16 15 13 12 12 11 10 9
7 3 4 3 2 2 1 1 4 5 2 4 4 5 5 5 4 5 4 2 2 3 3 3 2 3 4 5 4 1 4 3 4 8 8 7 5 6 7 8 7 8 8 8 8 8 7 7 6 6 10 13 14 15 15 14 13 12 10 10 9 8 7 6 4 4 4 6 7 7 6 5 4 5 5 5 6 6 6 6 6 6 6 8 12 13 12 13 14 15 15 14 12 12 11 11 10
7 2 5 3 2 2 1 1 3 4 3 4 4 4 3 3 3 5 2 1 4 6 5 6 4 4 5 6 5 3 4 3 4 8 9 8 6 6 7 8 8 8 9 9 9 10 10 9 8 7 8 9 10 12 14 14 14 13 12 11 10 9 8 6 5 4 4 5 7 8 7 7 6 6 6 5 5 5 5 5 5 5 5 7 10 11 11 12 12 14 15 13 12 11 11 11 10
6 2 5 2 1 1 1 1 2 5 4 4 4 4 5 4 3 4 1 1 7 8 8 9 7 6 7 5 4 4 4 4 6 8 9 9 7 5 5 5 6 7 8 9 10 11 11 11 11 10 10 9 9 8 9 11 12 13 13 12 11 10 9 7 6 5 5 5 6 7 7 7 8 8 7 5 4 3 3 3 6 7 6 8 9 9 10 11 12 13 14 13 13 13 13 12 11
5 3 4 1 2 2 2 5 5 5 6 7 6 4 4 4 4 4 1 3 7 9 8 9 8 8 7 4 3 4 4 5 7 8 7 8 7 6 5 5 6 6 8 9 9 10 11 12 12 12 12 11 11 10 9 9 11 12 12 12 11 11 10 9 7 7 7 6 6 6 7 8 8 7 6 5 4 3 3 4 6 7 7 7 7 8 9 10 11 12 12 13 14 15 15 15 13
4 4 4 1 3 4 7 10 9 7 8 9 8 3 3 3 3 3 2 4 5 7 7 7 8 8 6 4 4 4 4 4 5 5 5 6 5 5 5 5 6 7 9 9 9 9 10 11 11 12 12 12 13 12 10 11 11 10 11 10 10 10 10 11 10 10 9 7 7 7 7 8 7 7 6 4 3 4 4 5 6 6 5 5 5 6 7 7 9 10 11 12 13 15 16 16 15
3 3 4 3 3 4 5 8 7 7 7 6 5 3 3 4 3 0 3 5 2 5 8 8 9 8 6 5 5 5 4 3 2 2 2 3 3 4 4 5 5 7 8 9 9 8 9 10 11 11 11 12 13 13 12 11 11 10 9 8 8 9 10 11 11 11 11 9 9 9 9 8 7 7 6 4 3 4 4 5 5 3 3 2 3 4 4 5 7 9 11 10 11 14 14 14 15
3 3 4 4 5 4 3 6 5 3 3 3 2 3 3 3 1 2 3 4 3 8 9 8 9 7 6 5 5 6 5 3 2 2 1 2 3 5 6 7 7 8 9 9 10 9 8 9 11 11 11 12 13 14 13 11 10 9 8 7 7 8 8 10 12 12 12 10 10 11 10 8 7 6 6 5 4 3 2 2 3 2 1 1 1 2 2 4 5 7 10 10 10 12 12 12 12
2 1 4 7 6 4 5 3 2 1 2 3 1 2 2 1 3 4 5 5 7 10 8 7 8 9 9 7 6 7 6 3 2 2 2 3 4 6 7 8 9 9 10 11 11 10 10 10 11 11 11 12 12 14 14 12 10 10 10 9 8 8 8 8 9 10 11 10 9 10 9 8 7 6 6 5 4 3 2 2 2 1 0 0 1 1 2 3 5 6 7 9 10 11 9 9 9
4 1 2 4 3 4 5 4 3 3 3 3 1 2 3 2 2 2 5 6 9 10 5 6 8 10 10 9 8 7 5 4 3 3 4 5 5 6 7 8 9 9 11 11 11 11 11 11 10 11 12 13 14 15 15 14 13 13 12 11 10 10 8 8 8 9 10 9 8 9 9 8 7 6 6 6 5 4 3 3 3 2 2 3 3 2 3 3 4 3 3 6 9 9 8 8 9
4 1 2 2 1 2 5 5 4 5 4 4 4 5 6 5 4 3 8 10 9 9 6 6 9 9 9 9 8 5 5 4 4 4 5 6 6 7 7 8 9 9 9 9 9 9 10 10 9 11 13 16 18 16 16 15 15 15 14 13 12 11 10 11 10 9 8 8 7 8 8 7 6 5 6 5 6 7 6 6 6 6 6 5 5 4 4 4 5 3 4 5 6 7 7 9 12
1 0 3 3 3 3 6 8 7 7 6 6 4 6 8 7 5 3 8 12 10 9 9 9 10 9 8 6 5 4 4 4 4 5 6 6 7 7 7 8 8 8 7 6 6 6 7 7 8 12 15 19 22 19 17 16 16 16 15 14 13 12 12 11 10 9 8 8 7 8 7 6 5 6 6 5 6 8 7 8 9 10 8 7 7 6 6 7 6 5 6 6 3 4 6 9 12
1 2 5 7 9 9 8 10 10 9 8 8 6 5 8 6 5 4 10 14 11 11 11 11 10 8 6 5 4 4 4 4 5 5 6 7 8 9 8 8 8 7 6 5 4 4 6 7 10 15 17 20 22 20 18 17 16 16 15 15 14 13 12 11 10 10 10 9 9 8 7 7 6 7 8 6 6 8 8 9 10 11 10 9 9 8 9 9 6 4 5 4 2 2 4 7 10
1 3 6 9 11 11 11 11 11 9 6 9 9 4 5 3 4 6 13 16 12 13 13 12 10 7 6 5 5 4 4 4 5 6 6 7 8 9 9 8 8 7 6 4 2 4 6 9 14 17 18 18 20 20 18 17 16 16 15 15 15 14 13 12 11 10 10 10 9 7 6 6 6 6 7 5 5 6 8 10 11 10 9 9 10 9 9 8 6 5 6 5 3 3 5 9 10
2 2 4 7 7 7 11 12 13 10 4 8 8 2 4 4 5 6 14 17 14 14 14 12 10 8 7 6 6 6 5 6 6 7 7 7 8 8 8 7 7 7 6 2 2 5 9 12 15 17 16 16 17 18 17 15 15 15 14 13 13 14 13 11 10 9 9 8 8 6 5 5 5 5 5 5 5 5 6 8 9 9 8 7 8 7 7 7 6 6 7 4 2 3 7 10 10
3 2 1 3 6 5 7 7 12 9 4 9 8 1 5 6 6 9 15 18 16 15 14 13 11 9 8 7 7 7 7 7 7 8 8 8 8 7 7 6 5 5 4 1 3 7 10 12 15 16 14 15 15 15 16 15 14 14 12 11 11 11 10 8 8 8 8 7 5 4 6 5 3 4 5 5 5 4 4 5 5 6 5 4 4 4 4 3 4 5 4 2 3 5 7 8 9
1 1 1 1 2 4 6 2 12 8 4 9 8 1 6 6 6 14 16 18 18 17 16 14 12 11 9 8 8 8 8 8 8 8 7 7 7 6 6 5 4 4 2 2 5 10 11 11 15 15 12 14 15 14 14 13 14 14 12 11 10 10 9 7 6 6 7 6 4 4 4 2 2 3 3 2 2 2 3 3 3 3 2 2 2 2 1 1 3 3 3 2 3 5 7 9 10
1 1 3 3 2 4 7 2 11 6 3 8 6 1 6 6 8 15 16 19 19 17 17 16 14 13 11 10 9 9 8 8 8 7 6 7 7 6 5 4 3 3 4 5 8 12 12 12 13 13 13 14 14 14 14 13 13 13 12 12 10 10 10 9 8 7 7 6 6 6 6 5 4 3 2 3 3 5 5 4 4 4 4 3 2 1 1 1 1 1 1 3 4 6 7 7 6
2 2 3 3 2 3 4 1 6 5 3 5 4 3 4 5 10 16 16 20 19 17 18 18 16 15 13 12 11 10 9 8 8 7 6 7 7 5 4 4 4 6 7 7 11 13 14 14 12 12 14 14 15 15 15 14 13 12 11 10 9 8 9 8 8 7 6 6 6 6 6 6 6 5 5 5 4 5 5 5 5 5 4 3 2 2 1 0 1 2 2 3 4 4 5 6 8
3 0 2 4 2 2 1 4 5 5 5 4 4 4 5 6 9 18 19 20 20 19 20 21 19 16 14 13 12 10 10 9 7 7 7 7 7 5 5 4 5 8 9 9 11 14 15 15 13 13 14 15 15 14 13 15 13 10 10 9 8 7 7 7 6 5 5 5 5 4 4 4 4 5 5 5 4 3 4 4 5 5 4 3 2 1 1 2 2 2 2 4 5 7 9 10 11
2 2 2 3 2 1 3 3 3 6 4 4 4 5 9 9 6 16 20 20 22 21 20 21 19 17 16 15 13 12 11 10 7 7 8 8 7 5 6 8 8 10 11 11 13 15 15 16 15 14 14 14 15 13 12 16 16 13 11 9 8 8 10 10 8 7 8 8 8 7 5 5 5 5 5 5 4 4 4 4 5 5 5 4 3 3 5 6 7 7 7 8 9 10 12 14 14
5 5 4 3 3 4 4 4 4 7 4 5 7 7 9 8 7 12 18 21 23 21 18 19 20 18 18 16 15 14 13 11 8 7 8 8 7 6 7 11 12 12 13 13 14 15 16 18 16 14 15 15 15 15 15 16 17 16 13 12 12 13 13 12 10 9 10 10 10 9 8 7 7 6 6 6 5 5 6 7 8 9 10 9 9 9 10 10 10 9 10 10 10 10 11 14 16
4 3 3 4 4 4 4 3 3 4 3 5 8 7 7 8 6 11 20 21 20 19 16 20 22 20 20 18 17 17 15 12 9 9 10 8 8 8 9 11 12 13 15 14 15 16 16 15 14 17 21 17 14 15 15 15 15 15 15 15 15 15 13 12 12 12 11 11 11 10 9 9 9 9 9 9 9 10 11 12 13 13 13 11 11 12 12 11 11 11 11 10 11 11 12 15 16
4 2 3 3 2 5 5 2 2 1 2 5 5 5 8 8 7 9 17 16 16 22 21 22 24 22 21 20 19 19 16 13 10 11 12 10 10 10 11 12 13 15 16 15 15 16 16 13 14 19 20 16 15 14 13 13 12 12 13 14 14 16 15 12 13 14 13 13 13 12 13 13 14 14 15 14 14 15 14 14 14 14 13 12 12 12 12 11 12 12 13 14 15 16 16 17 16
3 2 2 2 3 4 5 3 1 0 1 4 6 5 8 9 9 10 15 17 16 21 23 24 25 23 22 21 21 20 17 14 13 13 13 13 12 12 13 15 16 17 17 17 16 16 17 17 18 19 17 16 16 15 14 13 13 13 13 14 15 16 16 14 14 16 16 16 17 17 18 18 18 18 17 16 15 15 14 14 14 13 13 13 11 11 11 12 13 14 15 16 16 16 17 18 19
3 3 3 3 3 2 3 4 2 1 1 3 5 5 6 7 10 10 9 14 12 13 19 22 24 23 22 23 22 20 18 16 15 15 15 15 15 15 16 17 19 20 18 19 18 16 16 17 17 17 16 15 15 14 13 13 15 15 14 16 16 17 19 19 19 21 20 20 21 21 20 18 17 17 16 14 13 13 13 13 13 12 12 12 12 12 13 14 15 15 16 16 16 16 17 19 19
3 4 5 4 4 5 6 3 2 3 4 3 3 6 6 5 10 8 2 5 9 11 14 17 19 21 21 21 21 19 17 17 16 17 18 18 18 18 19 20 21 20 19 19 19 18 17 16 16 17 17 15 14 14 13 13 15 16 17 20 21 22 24 23 23 24 23 22 21 20 19 17 15 15 14 13 12 12 12 13 12 12 13 13 13 14 14 15 16 16 17 17 18 18 19 18 18
4 4 7 7 7 7 6 3 4 4 5 4 2 3 6 3 6 6 1 3 6 8 11 15 17 19 20 20 20 18 16 16 15 16 19 20 20 21 22 23 22 20 19 20 21 20 17 16 18 18 18 17 16 14 12 12 15 17 21 24 25 27 28 26 24 24 22 21 20 19 18 16 14 13 13 12 12 12 12 13 13 13 13 14 15 15 15 16 16 17 18 18 18 19 18 17 18
3 5 5 7 7 6 4 0 2 1 4 3 3 1 7 5 5 7 4 6 8 6 8 13 17 18 20 21 20 19 18 17 16 16 20 22 22 23 24 25 24 21 21 22 20 18 17 18 19 19 18 18 16 15 14 15 18 22 24 25 26 27 28 26 24 22 21 20 19 18 16 15 13 12 11 11 11 11 11 12 12 13 13 14 15 15 15 17 17 18 18 18 19 19 18 19 19
3 5 4 5 5 5 4 4 3 3 3 4 2 3 5 7 7 6 5 7 7 7 8 11 17 20 20 21 21 20 20 19 18 19 21 23 23 24 25 25 24 23 24 23 20 18 18 19 20 19 19 18 18 17 17 18 21 24 25 26 26 24 24 25 24 21 19 18 17 15 14 13 12 11 10 10 10 10 11 11 12 13 13 14 15 15 16 17 18 18 18 19 19 19 20 20 20
4 5 5 6 6 5 4 5 2 2 2 4 2 4 3 8 5 1 3 5 8 11 12 11 16 21 22 23 22 21 21 19 19 20 22 24 25 25 25 26 25 24 24 23 21 20 20 20 19 19 19 19 20 20 21 21 22 23 24 24 24 23 22 23 21 19 18 15 14 14 12 11 11 10 9 10 10 10 11 12 13 13 14 15 15 16 17 17 17 17 18 19 19 20 20 20 20
4 4 6 6 5 4 4 4 3 2 2 5 5 5 3 6 3 2 2 4 9 10 9 10 16 23 24 24 24 23 22 20 19 20 22 24 26 26 26 25 26 25 24 23 22 22 21 21 19 18 20 21 22 22 23 23 22 21 21 20 19 20 20 19 19 17 16 13 12 12 11 10 9 9 9 10 10 11 12 13 13 14 15 15 16 16 16 16 17 18 18 19 19 20 20 21 21
8 6 6 7 6 5 4 2 4 2 4 6 9 10 6 4 4 4 4 5 6 4 3 7 15 22 25 25 25 25 24 23 21 21 23 25 26 26 26 26 26 26 25 24 23 23 22 21 19 19 22 23 24 24 24 23 22 20 18 16 14 15 16 16 16 15 15 12 11 11 10 9 8 9 9 9 10 11 12 12 13 14 15 15 15 16 17 17 18 18 19 19 19 20 20 21 21
8 5 4 4 4 4 5 4 4 1 6 5 9 11 9 7 6 3 5 6 5 5 6 8 13 21 26 26 26 27 26 25 25 24 25 27 28 28 27 27 27 27 27 26 25 24 23 22 22 23 24 24 25 26 25 23 22 19 17 15 13 13 14 14 13 13 13 11 9 9 8 8 8 8 8 8 10 10 11 12 12 13 14 15 16 16 17 17 18 18 18 19 20 20 20 20 21
5 5 6 3 2 3 3 2 0 3 6 4 4 6 6 8 7 7 10 8 5 6 9 14 19 24 27 28 28 27 27 28 28 28 28 29 30 30 30 29 29 29 28 27 26 26 25 25 25 25 26 26 26 26 25 23 21 18 16 14 13 13 13 13 12 12 12 10 8 8 7 7 7 7 7 8 9 9 10 11 12 13 14 15 15 16 16 17 17 17 18 18 19 19 19 20 20
5 6 6 4 2 1 3 3 2 4 5 3 1 4 3 5 4 9 12 6 5 8 10 18 24 29 30 30 30 28 28 29 30 30 30 30 31 32 32 31 31 30 29 28 27 27 28 28 28 27 28 28 27 26 25 22 20 18 16 14 13 13 13 12 11 10 11 9 8 7 7 6 6 6 6 7 8 9 10 11 12 13 14 14 15 15 15 16 16 16 17 17 17 18 19 19 20
5 5 6 5 5 4 4 4 3 4 4 3 1 3 4 3 2 6 6 3 5 4 9 16 21 27 29 30 30 29 29 30 31 30 30 30 31 31 32 32 31 31 30 29 29 30 30 30 29 29 29 28 27 26 24 22 21 19 17 15 13 13 13 13 12 10 10 8 7 6 6 5 5 5 6 7 8 9 10 11 12 12 13 13 13 14 14 15 15 16 16 17 17 18 18 19 20
3 3 4 3 5 5 3 3 5 3 2 3 2 3 4 4 3 4 3 5 6 3 11 16 19 24 28 29 30 30 30 31 31 30 30 30 30 31 32 32 31 31 31 31 31 31 31 30 30 29 28 27 27 26 24 22 21 19 18 16 15 14 13 13 12 11 9 8 6 5 4 4 4 4 5 6 7 8 10 11 12 12 12 13 13 13 14 15 15 16 16 17 17 18 18 19 20
2 3 4 4 4 5 2 3 0 2 2 4 3 4 4 2 3 3 4 3 4 4 9 15 19 24 27 29 30 31 31 31 31 30 30 30 30 31 32 32 32 32 32 32 32 31 31 30 30 29 28 27 26 25 24 23 21 20 19 17 16 15 14 12 11 10 9 8 7 5 4 3 3 4 5 6 7 8 10 11 12 12 12 13 13 14 14 15 15 16 16 16 17 18 18 19 19
5 3 5 2 2 2 2 1 3 1 3 4 3 5 4 2 4 3 4 2 3 3 6 11 17 23 26 27 30 31 31 31 31 30 30 30 31 32 32 32 32 33 33 32 32 31 30 29 29 29 28 27 27 26 24 23 22 20 20 18 17 16 14 12 11 10 9 8 7 6 4 3 3 4 5 6 7 8 10 11 12 12 13 13 14 14 14 15 15 15 16 16 17 17 18 19 19
5 3 4 4 2 1 2 2 2 1 4 5 3 5 5 5 5 2 3 8 9 7 7 9 14 21 25 26 29 30 31 32 32 31 31 32 32 33 33 33 33 33 32 32 31 30 30 29 28 27 26 26 26 26 25 23 22 21 20 19 18 16 15 13 12 11 10 9 7 6 5 3 3 4 5 6 7 9 10 11 11 12 13 14 14 14 14 14 14 14 15 15 16 17 18 19 20
3 2 1 2 2 4 3 3 3 3 3 4 3 2 4 6 6 8 11 14 12 11 10 10 16 23 26 28 31 32 33 34 34 34 34 34 34 34 34 34 34 33 33 32 32 31 30 29 29 28 27 27 27 26 25 24 23 22 21 20 19 17 16 15 13 12 11 9 8 6 4 3 2 3 4 5 7 9 10 11 12 13 14 15 15 14 14 14 14 14 14 15 16 17 18 20 21
3 2 3 2 1 2 1 2 3 4 3 3 3 5 5 4 4 8 11 11 11 14 13 12 18 25 28 30 33 34 35 36 36 36 36 36 36 35 34 34 34 34 33 33 32 31 31 30 30 29 29 28 28 27 26 25 24 23 22 21 20 19 17 16 14 13 11 10 8 6 4 2 1 2 3 5 7 9 11 12 13 14 15 15 15 14 14 13 13 14 15 16 17 18 19 21 22
5 6 7 7 6 4 2 4 2 3 3 4 3 6 7 4 3 4 7 6 9 16 16 14 20 28 30 31 34 34 36 37 37 37 38 38 37 36 36 36 35 35 34 34 33 32 32 31 31 30 30 29 28 27 26 25 25 24 23 22 21 20 18 17 16 14 12 10 8 6 4 3 1 1 3 5 7 9 11 12 14 15 15 15 15 14 13 13 13 14 15 16 18 19 20 22 23
Wind_Direction
9 158 210 205 190 101 49 44 37 349 70 87 99 93 39 58 92 69 50 56 67 14 44 63 37 33 48 88 89 75 57 56 90 95 131 163 119 130 130 133 138 140 136 150 172 168 164 164 158 163 158 161 155 148 140 122 113 99 92 84 76 75 86 114 120 112 110 106 99 97 98 94 86 77 67 62 64 51 34 28 27 27 29 28 26 23 19 14 7 2 0 4 7 6 8 11 17
62 156 196 173 137 46 46 69 69 3 55 63 27 102 85 50 68 72 80 76 98 110 58 58 45 39 67 99 89 73 54 62 86 101 118 112 112 137 113 124 142 132 123 134 167 168 163 167 162 168 163 164 162 158 149 121 112 97 89 86 85 91 107 124 121 113 106 99 95 93 98 97 93 87 77 70 64 51 35 28 27 31 31 29 25 22 20 16 13 9 7 9 11 8 8 11 14
92 151 153 188 25 33 35 65 87 74 75 87 2 324 88 74 87 107 100 84 80 75 60 50 44 47 72 85 75 76 72 76 87 100 106 105 128 130 109 125 135 130 115 110 159 168 160 168 166 169 169 167 168 167 159 132 113 95 77 78 88 103 122 132 128 119 106 96 90 86 93 98 97 90 81 69 59 50 36 30 30 31 31 30 27 24 21 19 19 18 19 20 19 15 12 14 15
102 140 137 333 30 43 50 66 114 107 104 131 69 346 95 107 119 117 97 82 75 63 58 66 52 62 74 77 77 79 74 73 82 96 95 102 123 115 111 125 130 128 116 96 141 164 161 168 170 171 174 171 173 171 163 147 123 103 63 73 89 111 134 138 133 125 108 96 85 82 90 94 92 82 72 58 47 41 33 30 29 28 28 28 26 23 20 20 22 23 25 27 26 23 20 23 25
102 153 87 5 32 51 76 73 96 91 126 174 120 120 121 123 129 122 105 89 81 66 59 68 66 79 73 61 71 68 52 80 81 90 96 101 111 107 111 123 129 123 115 97 114 156 163 164 171 176 178 174 172 171 166 155 139 119 54 67 90 126 147 143 137 127 109 95 85 85 90 91 87 76 64 54 41 33 29 27 24 22 21 20 18 17 16 17 21 23 26 31 31 30 29 35 40
127 158 347 1 18 35 73 68 65 70 320 165 125 157 141 133 134 126 113 95 82 71 64 69 81 94 81 68 68 57 50 98 82 87 102 108 113 115 120 127 129 126 113 104 108 143 162 167 171 178 182 180 174 173 172 159 146 137 63 46 82 145 159 151 144 132 112 100 91 92 96 95 91 75 53 49 43 28 23 22 18 15 14 11 10 9 10 13 18 22 24 31 34 34 35 41 48
109 76 15 4 14 41 87 103 95 80 355 99 131 153 138 132 135 131 119 101 78 68 62 61 86 94 89 101 74 57 64 87 93 92 108 119 122 125 125 124 129 141 145 122 125 135 152 167 174 180 180 183 182 177 173 159 158 153 105 77 85 145 167 160 151 141 123 107 98 98 98 91 85 76 52 43 40 26 18 15 12 11 12 10 8 6 6 8 13 19 22 27 34 34 33 38 47
68 48 24 38 45 37 93 108 103 133 39 56 118 124 116 103 114 131 127 113 101 67 61 42 67 88 78 131 95 64 76 75 81 91 103 119 126 131 125 125 136 151 158 153 161 159 146 157 175 183 179 185 185 178 180 178 175 169 129 111 111 130 165 170 159 149 132 114 109 109 104 96 102 106 69 42 33 22 17 11 10 11 14 12 10 6 4 5 8 14 18 22 28 32 31 31 38
40 41 26 58 59 34 80 91 68 112 96 69 84 95 98 75 70 92 101 91 100 74 63 33 53 105 112 97 98 82 82 70 73 85 95 111 126 130 126 136 145 150 158 167 178 188 170 156 174 183 181 186 185 184 192 192 182 178 155 126 127 131 150 176 170 157 139 125 124 123 126 129 133 129 57 32 24 14 19 16 13 12 15 14 10 6 3 3 4 8 13 17 19 25 27 25 28
35 44 22 65 64 51 59 71 81 95 111 113 89 87 87 77 64 78 99 90 108 86 64 43 66 116 124 95 101 89 78 75 82 87 95 108 125 133 136 144 151 149 158 172 180 194 191 176 174 183 185 187 190 192 197 198 188 181 167 133 134 139 141 164 176 167 148 138 137 138 151 155 154 153 17 14 12 11 22 23 19 15 17 15 9 6 3 2 2 4 9 13 14 16 20 20 19
36 11 360 63 51 72 130 123 114 135 124 96 68 79 88 89 57 61 96 92 107 97 68 48 62 109 118 97 118 109 86 96 109 99 97 106 122 139 147 144 155 164 168 174 178 187 191 187 180 183 186 190 195 197 202 206 202 194 187 155 145 146 141 152 170 177 162 152 151 153 167 173 175 177 255 338 355 10 25 24 21 19 18 14 9 7 3 2 1 1 5 10 13 12 14 15 13
32 342 61 76 62 128 162 140 139 141 87 65 52 110 107 79 58 38 82 87 100 96 66 52 37 101 115 109 135 141 129 103 103 90 92 105 120 140 152 151 155 172 185 183 180 183 186 190 187 186 188 191 195 198 205 208 211 207 200 190 170 161 153 150 159 172 176 172 167 172 181 187 201 197 260 314 333 356 19 19 18 18 15 10 9 8 5 2 360 360 2 8 13 13 12 11 10
47 39 78 97 171 137 129 127 150 121 53 319 187 149 125 79 73 47 73 83 96 101 64 52 41 77 106 125 139 167 188 63 55 53 71 108 143 172 170 168 166 174 192 200 197 192 189 192 192 190 192 193 196 199 201 204 211 213 210 204 188 180 173 162 155 161 181 189 186 191 197 203 222 243 277 301 326 344 1 8 11 12 8 6 9 8 5 2 1 1 2 7 12 15 14 12 9
48 53 93 127 59 113 115 122 150 109 49 270 169 140 112 87 80 56 73 80 79 92 74 59 65 88 108 130 142 175 163 25 46 59 58 131 162 174 179 183 179 179 187 207 217 213 199 192 191 191 195 196 201 203 202 206 211 214 215 207 197 197 190 180 165 158 176 197 204 204 212 222 244 272 286 301 328 340 351 359 0 6 5 4 8 6 4 4 6 7 7 9 12 15 17 17 13
37 33 96 97 26 65 113 144 141 115 179 239 147 145 109 97 94 71 80 86 78 83 89 100 92 101 133 155 161 173 50 35 76 93 92 114 144 153 170 179 181 188 185 198 212 227 227 212 194 184 193 200 205 207 206 207 209 215 214 211 215 211 199 195 185 166 171 188 205 215 222 228 249 271 290 305 315 324 336 348 351 6 10 4 4 3 5 9 14 17 16 14 14 16 19 21 20
19 23 78 72 38 65 95 105 111 107 204 201 150 155 124 103 104 90 81 63 79 101 127 119 79 99 133 134 129 74 50 57 107 116 112 109 134 156 171 174 182 197 196 198 198 209 224 233 223 185 187 200 210 212 211 210 209 212 212 217 225 217 207 207 201 186 180 187 198 208 217 227 237 255 275 290 302 319 337 350 347 1 8 2 1 1 7 14 19 26 28 27 24 21 22 24 24
8 38 64 53 55 71 74 43 120 145 196 186 132 120 131 120 107 98 96 310 85 111 121 104 101 106 106 111 109 78 77 99 140 140 133 131 148 167 183 185 189 199 203 211 208 206 209 218 223 208 193 192 205 214 214 216 215 213 213 218 223 223 223 224 222 213 201 199 202 205 213 224 235 248 259 273 293 316 339 353 335 340 357 359 359 0 8 16 23 32 38 41 40 36 32 29 29
19 84 78 73 90 43 226 109 139 150 146 163 123 86 106 128 131 108 15 21 97 108 103 103 116 104 96 106 107 95 100 120 148 154 150 152 163 175 198 206 204 208 210 216 217 216 213 211 214 212 204 193 189 200 206 208 213 214 215 219 223 231 236 233 231 228 218 214 214 209 212 222 232 243 253 265 279 302 332 337 319 328 354 358 356 2 8 13 22 32 42 48 52 52 46 39 36
38 83 86 100 175 60 85 106 79 104 136 141 124 94 100 126 134 119 345 23 100 112 101 111 117 106 110 125 125 117 119 122 135 153 163 167 180 198 222 237 239 242 243 238 229 226 223 217 215 211 206 198 185 188 199 200 207 212 215 220 222 227 233 232 227 228 227 222 220 206 208 217 224 236 246 257 268 289 310 312 316 333 354 359 357 2 4 9 18 29 42 46 52 55 52 47 44
29 61 82 257 192 77 67 92 78 88 126 124 117 112 88 131 139 119 118 54 87 130 129 135 129 127 140 143 151 149 151 138 125 140 161 175 201 224 242 254 256 258 259 260 254 247 241 232 224 216 210 204 189 187 196 199 207 214 214 217 220 222 225 226 226 232 227 215 212 201 207 215 217 229 235 243 273 290 307 317 321 341 360 1 359 358 359 8 13 22 35 42 47 50 48 47 44
11 62 135 212 155 89 70 95 87 83 103 109 116 107 78 131 151 105 134 82 54 156 148 160 153 155 163 154 163 172 180 172 147 145 162 190 222 243 256 262 262 264 266 269 268 262 257 251 239 225 214 205 193 190 191 195 206 212 208 206 212 218 222 224 224 228 225 213 209 202 204 213 216 224 232 240 270 284 309 325 326 358 18 3 357 6 8 5 10 17 21 27 39 43 42 41 39
42 77 121 97 87 116 129 110 104 81 94 105 96 100 106 146 199 289 190 158 195 170 153 164 170 181 189 181 173 179 196 196 190 210 224 234 250 256 263 267 266 270 272 273 274 273 262 252 245 234 214 202 195 190 187 187 199 202 200 198 204 216 220 223 224 224 223 217 213 206 203 211 219 221 231 243 260 272 287 313 324 2 28 360 347 17 17 352 359 6 6 7 20 31 34 35 35
76 68 70 71 78 130 159 144 135 156 135 141 102 142 162 180 292 274 215 191 183 170 161 173 188 204 211 208 185 183 199 202 219 248 257 250 254 257 260 266 269 273 273 274 274 272 262 249 242 233 210 197 187 178 176 182 198 200 197 194 192 205 206 208 218 219 217 215 212 212 214 220 223 218 220 228 240 244 237 276 315 339 153 203 256 313 340 333 337 344 356 354 358 11 19 24 29
89 14 19 60 65 126 166 193 184 202 187 177 192 229 238 236 272 241 177 170 175 175 172 179 192 200 204 201 181 179 193 202 231 245 260 262 262 265 267 270 273 274 273 274 270 266 261 250 239 224 202 184 171 168 175 184 199 200 195 194 193 200 193 177 185 197 205 208 209 217 228 230 225 222 220 217 217 222 231 252 276 246 216 223 224 251 287 292 308 311 332 333 342 355 356 360 10
78 64 319 360 356 158 192 216 212 225 218 213 244 250 252 242 241 217 173 170 175 179 175 174 182 181 181 183 172 171 195 218 244 250 264 271 272 275 279 281 282 281 278 275 269 262 254 247 232 212 191 171 164 172 181 186 197 197 193 198 201 201 185 172 183 197 204 203 201 207 218 227 223 223 225 217 217 225 227 228 239 235 225 235 240 251 269 279 285 247 240 289 331 344 342 356 2
59 102 310 311 274 254 226 218 214 232 230 218 235 250 261 257 250 245 187 181 178 174 169 171 176 169 162 171 173 178 207 233 255 269 279 281 286 288 288 291 289 290 286 277 267 253 241 232 206 192 179 168 168 176 182 185 192 195 197 201 207 209 198 192 195 188 180 185 192 199 209 219 215 215 223 228 230 228 226 230 239 236 229 237 243 250 258 260 261 244 250 276 321 339 347 1 357
342 321 307 290 273 275 248 223 221 225 227 216 203 238 266 250 227 225 185 181 180 173 166 172 179 171 164 176 191 203 220 236 256 270 282 288 293 296 299 300 299 298 289 276 264 235 215 195 180 177 173 170 172 176 182 188 190 193 199 202 204 207 203 202 198 183 181 192 202 210 218 223 219 218 226 236 235 231 232 233 229 224 223 227 232 241 247 244 249 264 262 259 293 319 347 352 347
310 313 306 287 281 283 255 229 221 211 213 214 202 239 282 221 215 221 187 180 185 180 169 175 184 179 178 188 205 219 228 237 251 260 270 280 284 290 293 293 294 294 287 275 242 203 186 175 172 172 171 172 175 178 183 190 191 192 196 199 201 203 202 204 208 205 205 209 213 216 219 226 232 227 228 234 236 238 236 226 220 221 225 231 234 235 237 241 258 268 241 223 242 283 324 333 335
268 284 305 299 319 304 253 229 211 194 178 199 189 308 303 223 224 209 181 177 179 179 172 176 184 186 188 195 207 216 230 238 247 257 263 268 271 275 275 276 278 276 276 262 182 174 169 167 168 168 169 172 176 181 185 188 191 191 194 195 196 201 206 214 223 226 223 222 223 229 244 259 267 262 252 240 232 233 234 233 238 250 258 256 246 238 239 244 246 237 223 221 247 289 315 324 330
266 259 177 315 353 327 264 223 193 183 169 179 163 331 281 250 216 176 172 174 171 173 173 179 185 188 195 199 205 211 219 229 240 249 257 262 264 268 267 262 254 255 260 220 142 154 161 164 164 162 168 175 175 183 187 191 196 193 189 186 184 192 201 211 223 228 229 228 230 255 277 290 308 297 281 263 249 236 239 248 250 253 259 255 239 236 242 227 200 197 203 235 275 294 310 320 325
238 337 71 8 4 290 306 152 163 163 189 178 146 193 263 270 204 173 174 176 176 177 177 183 188 188 197 202 207 213 215 221 234 240 247 257 257 262 265 255 239 232 217 128 119 135 143 149 156 156 163 174 176 181 183 184 192 195 192 181 172 179 184 184 185 189 195 195 208 242 251 267 306 301 305 315 281 195 195 212 203 199 184 182 207 212 218 170 166 191 208 251 285 304 316 322 323
75 53 321 335 153 264 315 135 160 154 196 180 143 208 267 275 200 180 179 180 184 186 183 188 193 192 197 205 209 214 219 222 228 233 235 245 249 249 248 240 217 180 139 112 116 125 128 133 148 157 160 166 169 173 177 172 171 180 191 188 181 183 185 186 176 164 164 169 194 207 193 199 231 236 151 126 151 158 166 182 178 169 166 175 196 196 213 198 186 223 279 307 320 329 332 340 350
358 126 244 275 186 263 319 245 194 162 142 188 197 215 270 273 198 186 186 188 191 192 190 193 195 197 197 203 209 211 222 225 221 225 222 228 238 234 227 214 183 151 128 116 118 124 132 139 146 153 157 165 170 169 175 177 169 171 182 183 180 181 186 193 187 183 188 193 205 204 190 200 208 188 159 152 154 148 144 151 148 141 142 142 145 153 165 196 323 331 340 343 349 3 27 48 52
321 88 226 251 216 206 249 291 253 166 136 203 233 227 247 267 201 190 196 196 197 198 196 194 193 197 196 198 205 210 222 222 211 211 210 218 225 217 199 174 156 140 127 119 122 128 134 139 145 146 146 158 169 170 177 185 183 179 170 159 159 167 172 169 159 160 167 165 164 163 167 180 178 167 156 152 152 142 127 119 117 114 111 102 92 75 57 45 25 26 50 58 54 54 59 56 52
203 182 212 266 286 224 197 260 241 170 163 217 221 242 250 266 229 202 203 201 203 208 203 194 192 194 193 195 199 206 216 215 208 206 204 209 209 201 178 149 141 141 131 127 133 136 138 140 145 148 143 145 153 160 173 177 172 171 168 159 158 157 149 141 131 127 130 131 126 120 125 122 124 129 125 123 122 120 111 103 102 99 95 91 88 89 87 84 81 78 74 68 59 52 51 49 46
172 172 167 191 242 277 232 233 221 173 180 233 221 234 248 256 244 213 211 207 207 214 208 195 194 194 193 193 196 202 209 211 214 203 195 202 196 184 167 150 149 148 139 139 141 140 143 145 148 155 153 147 145 149 154 156 155 158 162 161 155 142 135 134 130 133 135 131 126 125 126 117 113 114 111 108 103 105 105 103 102 97 97 102 104 99 91 85 82 75 66 58 52 47 46 48 48
194 161 162 193 211 273 270 256 251 165 166 246 233 237 258 259 249 220 216 212 211 215 208 195 195 195 194 191 192 200 207 213 216 196 187 193 185 172 163 153 151 148 145 151 152 151 153 151 154 159 156 153 153 152 149 147 147 148 152 155 149 138 136 141 138 141 144 136 131 132 130 120 116 113 106 103 101 102 103 103 103 100 98 97 92 84 75 68 59 51 45 37 32 27 28 36 43
244 225 214 246 239 254 267 261 254 184 196 265 271 271 274 267 266 241 216 207 212 212 203 196 197 195 194 192 193 199 204 209 205 188 183 183 177 171 163 153 152 153 153 159 156 156 163 159 159 158 154 154 160 162 160 156 154 156 159 157 152 144 143 149 145 141 140 134 130 127 120 115 113 110 106 105 104 101 100 99 95 89 84 77 74 72 66 59 50 41 32 25 22 19 18 20 23
212 200 174 241 267 266 295 323 301 88 177 258 288 279 270 268 269 257 220 207 215 214 207 203 198 193 192 192 195 197 199 203 196 184 181 179 177 173 162 156 161 162 161 167 161 154 156 151 151 153 149 149 152 155 159 160 159 164 167 160 158 154 147 150 143 133 131 128 123 119 115 114 112 109 106 104 102 98 94 91 85 82 78 72 66 62 56 47 41 35 29 25 22 17 16 14 11
175 163 158 228 263 262 289 312 300 286 244 255 289 280 269 268 263 265 232 208 203 207 211 209 203 200 200 200 201 201 200 203 194 182 180 180 178 174 166 161 165 165 164 169 167 161 159 154 153 155 153 153 154 157 164 167 165 167 168 161 160 156 144 141 135 128 127 125 120 116 113 112 110 107 104 101 98 94 89 83 78 72 67 60 50 43 39 34 31 27 25 23 19 17 18 16 13
251 202 186 211 237 218 229 273 324 325 328 316 330 312 285 257 253 266 282 187 182 182 190 192 198 204 203 200 203 207 210 210 198 184 182 182 179 176 170 165 166 166 167 173 174 169 166 165 163 161 162 164 165 171 181 182 174 170 164 156 153 146 136 133 132 128 126 124 121 117 113 111 110 107 102 97 89 82 74 67 60 53 48 43 36 31 30 29 26 23 22 19 16 20 22 19 17
279 238 202 204 216 224 239 302 17 3 326 309 47 330 286 282 262 255 151 168 194 184 178 176 183 191 192 193 197 202 208 209 203 191 185 184 181 177 172 173 176 174 172 178 178 169 164 165 163 162 164 165 169 176 182 177 168 161 155 151 147 139 133 133 132 129 128 127 123 119 116 112 107 99 92 83 73 65 58 52 46 41 37 35 32 28 27 27 24 23 23 20 18 22 23 18 21
254 250 202 197 206 216 234 318 50 287 267 290 82 111 276 286 265 247 191 196 219 211 201 190 183 182 185 191 194 197 198 196 197 193 187 184 182 179 175 178 181 178 175 175 172 168 169 168 163 164 167 167 171 171 164 160 154 150 148 145 142 138 136 134 133 132 131 126 121 118 113 106 97 87 80 71 63 56 49 45 40 35 32 31 29 25 23 24 22 22 22 20 20 20 16 16 21
226 245 157 140 160 181 188 130 133 224 252 317 48 124 277 276 256 251 185 192 233 236 227 213 197 189 187 190 192 194 195 194 195 193 188 185 183 180 178 179 179 177 176 175 174 174 175 171 168 171 173 169 165 157 151 152 148 147 147 143 141 141 138 134 135 133 127 123 120 114 106 100 92 82 75 66 59 52 44 40 36 31 29 28 26 23 23 25 22 22 20 18 18 15 13 15 16
237 226 129 110 123 138 124 107 129 304 354 299 247 134 266 272 264 308 138 192 245 237 224 216 203 197 195 195 193 192 193 197 200 196 188 184 183 181 180 180 177 177 178 176 178 178 176 175 175 176 173 163 155 149 149 151 150 149 148 145 143 141 137 134 134 130 123 123 121 111 105 100 92 82 73 64 56 49 41 38 33 29 28 27 26 24 25 25 21 20 20 18 17 16 16 17 16
196 145 87 68 70 71 68 95 106 24 330 243 206 161 227 269 248 127 122 226 244 241 226 205 199 201 202 200 196 193 192 194 198 197 190 185 183 181 182 181 177 177 180 179 179 178 177 178 179 176 169 158 151 151 153 154 154 153 150 150 147 141 138 135 133 129 126 127 122 114 109 100 91 81 70 61 52 46 41 38 34 30 30 29 28 27 26 24 23 21 21 20 18 18 18 17 17
132 92 59 46 27 31 39 55 87 55 278 224 193 187 193 264 271 186 191 227 221 220 200 190 194 197 199 200 197 195 194 193 194 193 189 185 183 182 183 182 179 178 180 181 180 179 181 181 178 174 166 158 153 155 159 158 158 157 154 153 150 144 141 139 138 135 132 132 127 118 110 99 90 78 67 61 54 49 43 37 34 30 29 28 25 24 23 21 21 20 18 17 15 15 15 13 13
109 85 83 65 351 12 22 2 58 132 257 230 200 192 185 227 262 228 235 256 227 199 187 185 186 189 192 194 194 194 194 193 192 191 188 185 184 183 183 183 181 181 181 182 182 181 183 181 177 172 166 161 158 159 163 162 160 160 157 154 151 146 143 142 143 139 136 136 129 118 111 102 91 80 71 63 55 49 41 34 31 27 24 22 20 19 19 17 16 14 12 11 9 8 8 7 6
92 100 108 104 308 360 2 313 146 224 249 251 204 178 196 236 251 259 259 260 257 237 203 187 183 184 186 187 188 190 192 192 192 192 190 188 185 183 182 183 183 184 185 185 184 183 182 178 175 173 168 164 162 163 166 165 163 163 161 158 155 150 147 148 148 143 139 138 129 123 116 106 95 85 74 61 54 47 37 31 26 23 19 18 17 14 12 11 8 7 6 5 4 2 2 2 1
144 135 135 151 165 170 265 247 246 260 261 283 202 159 227 269 266 261 258 255 286 278 221 196 189 185 184 184 185 187 190 193 194 193 192 190 187 184 183 185 186 187 187 186 184 182 179 176 176 176 170 166 165 166 168 168 167 166 164 163 162 158 155 154 152 148 145 141 133 127 117 106 94 82 70 56 51 41 31 28 22 19 17 14 12 8 6 5 2 1 0 360 360 359 360 359 358
176 153 137 153 158 170 217 212 212 252 273 293 274 163 197 220 248 263 271 318 336 289 203 189 186 184 182 181 182 186 189 192 194 194 194 192 188 186 186 187 188 188 186 185 183 180 179 177 177 178 172 168 169 170 171 172 171 169 168 168 167 165 164 161 157 152 148 142 136 128 117 105 88 74 63 50 45 36 27 24 19 14 13 9 6 4 2 360 358 358 358 359 0 360 358 358 356
219 128 115 174 184 174 208 211 185 185 286 280 217 217 217 204 251 286 329 4 22 96 161 163 166 173 175 177 181 186 189 191 193 194 194 192 189 187 188 187 188 187 185 183 182 180 181 179 178 179 175 172 172 174 176 177 176 174 172 173 173 172 172 170 164 157 152 147 142 136 124 109 90 69 58 47 41 33 24 19 14 10 9 6 3 1 358 357 357 357 357 358 359 358 357 356 354
180 136 175 209 178 153 186 276 352 104 262 261 193 240 291 293 279 325 38 32 37 93 145 152 160 168 172 177 183 187 190 192 194 195 193 192 189 188 189 188 187 186 185 184 183 183 183 181 179 180 179 175 176 179 180 182 182 179 176 177 179 177 177 176 171 166 161 157 154 149 138 121 99 71 56 47 36 27 19 13 10 7 5 2 359 356 355 355 355 354 355 355 357 357 355 354 352
134 179 205 182 61 90 133 262 341 53 255 269 195 219 259 240 251 336 56 170 221 201 164 154 162 170 175 181 185 189 191 193 195 195 194 192 189 189 189 189 188 187 187 186 185 185 185 184 183 183 183 180 181 183 185 186 186 184 182 181 181 180 180 179 177 174 171 168 166 160 152 139 106 70 48 38 27 18 12 7 5 2 360 356 354 352 352 352 352 353 354 354 356 356 355 353 351
131 185 188 123 110 205 136 170 225 198 247 276 252 224 221 204 214 213 191 209 210 199 182 172 175 179 182 184 185 189 191 192 195 194 193 192 190 190 189 188 189 189 189 188 187 187 187 187 187 188 189 187 186 188 189 189 189 189 188 185 185 185 184 184 183 181 178 174 172 166 158 141 95 61 40 29 18 9 5 1 359 357 355 352 349 348 348 348 350 351 353 354 354 354 352 349 347
66 60 146 109 155 175 167 180 175 169 224 266 292 258 233 226 204 181 198 209 194 183 188 194 190 186 186 185 186 189 190 192 194 193 193 193 192 191 190 189 189 189 190 190 189 189 189 189 190 191 193 192 191 193 192 192 192 192 191 188 188 189 188 189 187 184 182 179 177 173 160 132 79 52 32 17 6 1 358 355 355 353 350 348 345 344 344 345 348 350 351 352 350 348 346 345 343
153 150 183 202 164 129 174 223 155 144 191 237 277 278 262 245 198 186 209 213 189 185 191 194 192 188 189 190 190 190 191 192 194 193 193 193 193 192 191 190 191 191 191 191 191 192 192 192 193 194 196 196 195 196 196 197 196 195 196 194 192 192 191 191 189 186 186 186 183 176 165 144 90 45 17 5 356 353 351 350 350 348 345 343 339 339 340 342 345 347 347 346 345 344 343 341 340
173 186 188 185 176 150 197 248 209 162 197 188 207 270 266 233 191 207 227 226 197 195 193 186 189 190 191 194 194 193 193 193 194 194 194 194 194 193 193 192 193 194 194 194 194 195 195 196 197 198 199 200 201 201 201 201 200 199 200 199 198 196 195 194 193 191 191 191 190 184 178 177 151 9 354 349 343 344 346 346 345 343 340 337 334 335 337 339 342 343 342 342 341 339 338 336 335